Location: Chamerau
(49.1969°N, 12.7525°E)
Time: 15:47:01
(UTC+00:00)

IGS 5A - Pass Details

Date: 18 September 2020
Orbit: 583 x 588 km, 97.6° (Epoch: 09 October)

Event Time Altitude Azimuth Distance (km) Brightness Sun altitude
Exits shadow 19:37:08 39° 39° (NE) 890 4.2 -22.8°
Drops below altitude 10° 19:40:18 10° 359° (N) 1,919 6.5 -23.3°
Sets 19:42:32 0° 353° (N) 2,823 7.5 -23.6°
